TimeCST,TemperatureF,Dew PointF,Humidity,Sea Level PressureIn,VisibilityMPH,Wind Direction,Wind SpeedMPH,Gust SpeedMPH,PrecipitationIn,Events,Conditions,WindDirDegrees,DateUTC
12:53 AM,48.0,36.0,63,29.65,10.0,WSW,18.4,29.9,N/A,,Clear,240,2012-12-15 06:53:00
1:53 AM,48.0,34.0,58,29.66,10.0,SW,17.3,29.9,N/A,,Clear,230,2012-12-15 07:53:00
2:53 AM,46.0,33.1,61,29.67,10.0,SW,16.1,-,N/A,,Clear,230,2012-12-15 08:53:00
3:53 AM,45.0,33.1,63,29.68,10.0,WSW,17.3,-,N/A,,Clear,250,2012-12-15 09:53:00
4:53 AM,46.0,32.0,58,29.69,10.0,WSW,16.1,-,N/A,,Clear,250,2012-12-15 10:53:00
5:53 AM,44.1,30.9,60,29.71,10.0,WSW,11.5,-,N/A,,Clear,240,2012-12-15 11:53:00
6:53 AM,39.9,30.9,70,29.75,10.0,WSW,6.9,-,N/A,,Clear,250,2012-12-15 12:53:00
8:53 AM,41.0,33.1,73,29.79,10.0,SW,8.1,-,N/A,,Clear,220,2012-12-15 14:53:00
9:53 AM,45.0,33.1,63,29.81,10.0,SW,11.5,-,N/A,,Clear,220,2012-12-15 15:53:00
10:53 AM,46.9,35.1,63,29.81,10.0,SW,10.4,-,N/A,,Clear,220,2012-12-15 16:53:00
11:53 AM,51.1,35.1,54,29.80,10.0,SW,12.7,-,N/A,,Clear,220,2012-12-15 17:53:00
12:53 PM,54.0,36.0,51,29.76,10.0,SSW,12.7,-,N/A,,Clear,210,2012-12-15 18:53:00
1:53 PM,57.0,35.1,44,29.73,10.0,SSW,12.7,-,N/A,,Clear,200,2012-12-15 19:53:00
2:53 PM,55.9,37.0,49,29.72,10.0,SSW,10.4,-,N/A,,Clear,200,2012-12-15 20:53:00
3:53 PM,55.0,36.0,49,29.72,10.0,SSW,15.0,-,N/A,,Clear,200,2012-12-15 21:53:00
4:53 PM,52.0,37.0,57,29.72,10.0,South,11.5,-,N/A,,Clear,190,2012-12-15 22:53:00
5:53 PM,48.9,37.9,66,29.73,10.0,South,12.7,-,N/A,,Clear,190,2012-12-15 23:53:00
6:53 PM,51.1,36.0,56,29.74,10.0,SSW,13.8,-,N/A,,Clear,210,2012-12-16 00:53:00
7:53 PM,51.1,34.0,52,29.76,10.0,SW,15.0,-,N/A,,Clear,220,2012-12-16 01:53:00
8:53 PM,48.9,35.1,59,29.75,10.0,SW,13.8,-,N/A,,Clear,220,2012-12-16 02:53:00
9:53 PM,48.0,35.1,61,29.74,10.0,SSW,11.5,-,N/A,,Clear,210,2012-12-16 03:53:00
10:53 PM,46.9,34.0,61,29.74,10.0,SW,12.7,-,N/A,,Clear,220,2012-12-16 04:53:00
11:53 PM,46.9,34.0,61,29.74,10.0,SW,12.7,-,N/A,,Clear,220,2012-12-16 05:53:00